DW1458 Foley AL US current weather conditions

sailwx.info

Wind from 300 at 3 knots gusting 9

Air temperature 16.1° C
Dewpoint 13.8° C

Last reported at 2019-Oct-19 04:01 UTC.
Time now 2019-Oct-19 04:51 UTC

Location: N 30°24' W 087°40'.
View on Google Maps.

See reports from other nearby stations

  
Tides and Currents Weather Stations Pressure Air Temp Water Temp Dewpoint Dewpoint Depression Visibility Wind Speed Wind Dir Waves Ship Positions
date/time (UTC)wind fromknots sea level pressurealtimeterstation pressurevisibilityair tempwater tempwave heightnotes
2019-Oct-19 04:01 300 3 gusting 9 16.1
2019-Oct-19 03:46 288 1 gusting 10 15.6
2019-Oct-19 03:32 350 1 gusting 7 15.6
2019-Oct-19 03:15 305 15.6
2019-Oct-19 02:45 317 2 gusting 8 15.0
2019-Oct-19 02:16 203 4 gusting 10 15.0
2019-Oct-19 02:00 022 2 gusting 8 14.4
2019-Oct-19 01:45 036 2 gusting 8 14.4
2019-Oct-19 01:30 354 1 gusting 5 13.9
2019-Oct-19 01:17 096 0 gusting 8 13.9
2019-Oct-19 01:00 175 0 gusting 6 13.9
2019-Oct-19 00:47 341 2 gusting 7 13.9
2019-Oct-19 00:30 001 3 gusting 8 13.3
2019-Oct-19 00:00 356 3 gusting 7 13.3
2019-Oct-18 23:30 358 2 gusting 7 13.3
2019-Oct-18 23:15 345 2 gusting 7 13.3
2019-Oct-18 23:01 354 1 gusting 6 13.3
2019-Oct-18 22:45 108 0 gusting 5 13.3
2019-Oct-18 22:32 048 13.3
2019-Oct-18 22:15 011 13.3
2019-Oct-18 22:02 134 1 gusting 6 13.3
2019-Oct-18 21:46 336 0 gusting 5 13.3
2019-Oct-18 21:16 011 0 gusting 6 13.9
2019-Oct-18 21:00 354 0 gusting 5 13.9
2019-Oct-18 20:47 089 13.9
2019-Oct-18 20:30 188 0 gusting 4 13.9
2019-Oct-18 20:17 307 0 gusting 3 13.9
2019-Oct-18 20:00 267 0 gusting 5 14.4
2019-Oct-18 19:47 018 0 gusting 8 14.4
2019-Oct-18 19:30 340 0 gusting 5 14.4
2019-Oct-18 19:17 348 0 gusting 4 14.4
2019-Oct-18 19:01 330 14.4
2019-Oct-18 18:47 281 15.0
2019-Oct-18 18:30 354 0 gusting 6 15.0
2019-Oct-18 18:01 323 0 gusting 4 15.6
2019-Oct-18 17:45 236 15.6
2019-Oct-18 17:31 340 1 gusting 7 16.1
2019-Oct-18 17:15 302 0 gusting 4 16.1
2019-Oct-18 17:01 011 0 gusting 6 15.6
2019-Oct-18 16:45 354 15.6
2019-Oct-18 16:32 001 0 gusting 4 15.6
2019-Oct-18 16:16 328 15.6
2019-Oct-18 16:03 329 0 gusting 5 16.1
2019-Oct-18 15:46 022 0 gusting 5 15.6
2019-Oct-18 15:15 345 0 gusting 4 15.6
2019-Oct-18 14:46 314 0 gusting 6 15.0
2019-Oct-18 14:30 026 15.0
2019-Oct-18 14:15 354 1 gusting 4 15.0
2019-Oct-18 14:00 009 0 gusting 3 14.4
2019-Oct-18 13:46 173 14.4
2019-Oct-18 13:30 165 14.4
2019-Oct-18 13:17 025 14.4
2019-Oct-18 13:00 025 0 gusting 4 14.4
2019-Oct-18 12:47 104 0 gusting 2 15.0
2019-Oct-18 12:30 319 2 gusting 4 15.0
2019-Oct-18 12:00 240 15.0
2019-Oct-18 11:31 290 15.0
2019-Oct-18 11:01 348 15.0
2019-Oct-18 10:45 131 15.0
2019-Oct-18 10:31 121 15.0
2019-Oct-18 10:15 001 15.0
2019-Oct-18 10:02 126 15.0
2019-Oct-18 09:46 006 15.0
2019-Oct-18 09:16 026 1 gusting 5 15.0
2019-Oct-18 09:00 336 0 gusting 3 15.0
2019-Oct-18 08:46 358 0 gusting 6 15.0
2019-Oct-18 08:30 328 0 gusting 3 15.0
2019-Oct-18 08:16 019 15.0
2019-Oct-18 08:00 005 15.0
2019-Oct-18 07:46 331 15.0
2019-Oct-18 07:31 177 15.0
2019-Oct-18 07:00 209 15.0
2019-Oct-18 06:30 120 15.0
2019-Oct-18 06:00 036 1 gusting 4 15.6
2019-Oct-18 05:31 013 1 gusting 4 15.6
2019-Oct-18 05:15 345 15.6
2019-Oct-18 05:01 345 15.6
2019-Oct-18 04:30 353 15.6
2019-Oct-18 04:15 249 16.1
2019-Oct-18 04:01 345 16.1
2019-Oct-18 03:45 025 16.1
2019-Oct-18 03:33 001 0 gusting 4 16.1
2019-Oct-18 03:15 341 0 gusting 4 16.1
2019-Oct-18 02:46 015 1 gusting 4 16.7
2019-Oct-18 02:30 345 1 gusting 5 16.7
2019-Oct-18 02:16 356 0 gusting 4 16.1
2019-Oct-18 02:00 026 0 gusting 2 16.1
2019-Oct-18 01:46 351 1 gusting 4 16.1
2019-Oct-18 01:30 349 16.1
2019-Oct-18 01:16 324 16.1
2019-Oct-18 01:00 018 16.7
2019-Oct-18 00:47 042 16.7
2019-Oct-18 00:30 339 16.7
2019-Oct-18 00:02 290 17.2
2019-Oct-17 23:45 015 17.2
2019-Oct-17 23:31 338 0 gusting 2 17.8
2019-Oct-17 23:15 342 17.8
2019-Oct-17 23:01 341 18.3
2019-Oct-17 22:45 342 18.9
2019-Oct-17 22:16 341 20.0
2019-Oct-17 22:00 356 20.0
2019-Oct-17 21:46 356 20.0
2019-Oct-17 21:30 345 0 gusting 3 20.6
2019-Oct-17 21:18 029 20.6
2019-Oct-17 21:00 302 1 gusting 5 20.6
2019-Oct-17 20:47 304 21.1
2019-Oct-17 20:30 040 21.1
2019-Oct-17 20:01 011 0 gusting 2 20.6
2019-Oct-17 19:45 324 1 gusting 4 20.6
2019-Oct-17 19:31 297 21.1
2019-Oct-17 19:15 115 21.1
2019-Oct-17 18:46 323 0 gusting 3 21.1
2019-Oct-17 18:30 023 3 gusting 6 20.6
2019-Oct-17 18:16 354 1 gusting 4 20.6
2019-Oct-17 18:00 276 0 gusting 4 20.0
2019-Oct-17 17:46 351 0 gusting 4 20.0
2019-Oct-17 17:31 102 0 gusting 4 19.4
2019-Oct-17 17:16 300 0 gusting 4 18.9
2019-Oct-17 17:00 153 1 gusting 8 18.3
2019-Oct-17 16:46 308 1 gusting 6 18.3
2019-Oct-17 16:30 290 1 gusting 5 17.8
2019-Oct-17 16:17 352 0 gusting 7 17.2
2019-Oct-17 16:01 012 3 gusting 4 17.2
2019-Oct-17 15:31 022 0 gusting 6 16.1
2019-Oct-17 15:15 136 16.1
2019-Oct-17 15:01 032 1 gusting 5 15.6
2019-Oct-17 14:45 086 15.6
2019-Oct-17 14:33 001 1 gusting 5 15.0
2019-Oct-17 14:15 264 3 gusting 7 13.9
2019-Oct-17 14:01 355 2 gusting 5 13.9
2019-Oct-17 13:45 300 3 gusting 6 13.3
2019-Oct-17 13:16 345 1 gusting 6 12.2
2019-Oct-17 13:00 011 1 gusting 4 12.2
2019-Oct-17 12:46 345 0 gusting 6 11.7
2019-Oct-17 12:30 304 1 gusting 3 11.7
2019-Oct-17 12:16 032 11.7
2019-Oct-17 12:00 325 11.7
2019-Oct-17 11:47 355 11.7
2019-Oct-17 11:31 020 11.7
2019-Oct-17 11:00 309 12.2
2019-Oct-17 10:31 021 2 gusting 6 12.2
2019-Oct-17 10:00 028 3 gusting 7 12.8
2019-Oct-17 09:31 023 3 gusting 6 12.8
2019-Oct-17 09:15 009 1 gusting 6 12.8
2019-Oct-17 09:01 314 1 gusting 6 12.8
2019-Oct-17 08:45 004 1 gusting 5 12.8
2019-Oct-17 08:31 300 2 gusting 6 13.3
2019-Oct-17 08:15 359 1 gusting 5 13.3
2019-Oct-17 08:02 309 1 gusting 6 13.3
2019-Oct-17 07:45 001 0 gusting 4 13.3
2019-Oct-17 07:32 347 0 gusting 4 13.9
2019-Oct-17 07:15 314 0 gusting 4 13.9
2019-Oct-17 06:46 350 14.4
2019-Oct-17 06:15 009 15.0
2019-Oct-17 05:31 331 15.0
2019-Oct-17 05:15 338 15.0
2019-Oct-17 05:01 334 15.6
2019-Oct-17 04:45 331 15.6
2019-Oct-17 04:32 338 16.1
2019-Oct-17 04:15 294 16.7
2019-Oct-17 04:01 304 17.2